Weather in St Jerome

Canada     45°47′19″N   74°00′46″W
temp.,
°C
wind,
m/s
gust,
m/s
humid.,
%
clouds,
%
prec.,
mm/h
press.,
hPa
HPBL,
m
12 may, wed
wed1223:00+4w379287 0.2 1014237
02:00+3wnw249464 0.2 101497
05:00+4nw3118199 0.0 1016238
08:00+8nnw51262100 0.0 1019554
11:00+14nw374276 0.0 10192195
14:00+15nw574698 0.0 10192132
17:00+16nw463994 0.0 10182065
20:00+12wnw612465 0.0 1020370
13 may, thu
thu1323:00+7nnw37584 0.0 102190
02:00+7nw356031 0.0 102164
05:00+6nw35614 0.0 102264
08:00+12wnw255083 0.0 1023205
11:00+17nw45345 0.0 10232132
14:00+18wnw4644100 0.0 10212277
17:00+18wnw584696 0.1 10191821
20:00+12nne2474100 0.6 102184
14 may, fri
fri1423:00+9w229286 0.3 102223
02:00+7w359416 0.7 102178
05:00+7wsw359341 0.3 102272
08:00+12w24773 0.3 1022232
11:00+20wsw364017 0.0 10212480
14:00+21w4637100 0.0 10202852
17:00+19w68467 0.0 1020946
20:00+14wsw367080 0.0 1021122
15 may, sat
sat1523:00+9nw2291100 0.5 102214
02:00+8wsw349499 0.5 102266
05:00+8wsw3494100 0.0 102275
08:00+11sw3585100 0.0 1023219
11:00+17wsw5656100 0.0 1023966
14:00+20wsw664630 0.0 10212189
17:00+19wsw56526 0.1 10201748
20:00+12wnw3485100 1.1 102271
16 may, sun
sun1623:00+11wnw2591100 0.6 1022119
02:00+11wsw369255 1.0 1023128
05:00+8w249582 0.0 102376
08:00+12wsw23836 0.1 1023234
11:00+17w23655 0.9 10231140
14:00+19wsw3551100 1.5 10211336
17:00+19wnw355759 0.4 1021896
20:00+15nw237242 0.6 102252